Regional Weather Roundup
Issued by NWS

Home | Current Version | Previous Version | Graphics & Text | Print | Product List | Glossary On
Versions: 1 2 3 4 5 6 7 8 9 10 11 12 13 14 15 16 17 18 19 20 21 22 23 24 25 26 27 28 29 30 31 32 33 34 35 36 37 38 39 40 41 42 43 44 45 46 47 48 49 50
000
ASUS45 KCYS 282210
RWRWY

WYOMING REGIONAL WEATHER ROUNDUP
NATIONAL WEATHER SERVICE CHEYENNE WY
300 PM MST SAT FEB 28 2015

NOTE:  "FAIR" INDICATES FEW OR NO CLOUDS BELOW 12,000 FEET
WITH NO SIGNIFICANT WEATHER AND/OR OBSTRUCTIONS TO VISIBILITY.

WYZ001-282300-
YELLOWSTONE NATIONAL PARK

CITY           SKY/WX    TMP DP  RH WIND       PRES   REMARKS
LK YELLOWSTONE   N/A     21   6  52 E5        29.78S WCI  15
W YELLOWSTONE  NOT AVBL

$$
WYZ002>013-054>058-071-098>099-282300-
NORTHERN WYOMING

CITY           SKY/WX    TMP DP  RH WIND       PRES   REMARKS
JACKSON        PTSUNNY   25  10  54 CALM      29.79S
CODY           FAIR      19  12  73 N7        29.98S WCI  10
GREYBULL       FAIR      30   9  41 NW7       30.02F WCI  23
WORLAND        FAIR      26  11  52 NW5       30.01S WCI  20
SHERIDAN       CLOUDY    19   7  59 W5        30.08S WCI  12
BUFFALO        FAIR      15   7  70 N7        30.02S WCI   5
GILLETTE       PTSUNNY   20   7  57 NW10      30.04S WCI   9
HULETT         CLOUDY    19  10  68 W6        30.06R WCI  11
NEWCASTLE      FAIR      25   7  46 NW12G20   30.04R WCI  14

$$
WYZ014>020-022>026-101>103-282300-
CENTRAL WYOMING

CITY           SKY/WX    TMP DP  RH WIND       PRES   REMARKS
BIG PINEY      CLOUDY    28  14  55 VRB5      29.78F WCI  23
PINEDALE       CLOUDY    23  16  74 NW13      29.80R WCI  11
DUBOIS         MOCLDY    19  10  68 SE9       29.81S WCI   9
LANDER         CLOUDY    20  10  65 NE5       29.92R WCI  13
RIVERTON       FAIR      21   9  59 NE9       29.93F WCI  11
CASPER         CLOUDY    22   8  55 E12       29.95S WCI  10
DOUGLAS        FAIR      21   8  57 CALM      29.99F

$$
WYZ021-027>030-104>119-282300-
SOUTHERN WYOMING

CITY           SKY/WX    TMP DP  RH WIND       PRES   REMARKS
EVANSTON       CLOUDY    28  17  63 E14       29.72S WCI  17
KEMMERER       FAIR      30  14  51 NE14G21   29.74R WCI  20
FORT BRIDGER   CLOUDY    31  18  60 NE10      29.76S WCI  22
ROCK SPRINGS   PTSUNNY   25  13  60 NE17G23   29.77F WCI  12
DIXON          FAIR      38  12  35 NW6       29.75S WCI  33
RAWLINS        FAIR      28   9  44 NE16      29.80R WCI  16
SARATOGA       FAIR      32  14  47 NW7       29.76F WCI  26
LARAMIE        FAIR      20   9  62 SE17      29.78S WCI   5
CHEYENNE       CLOUDY    21  11  65 NE9       29.89F WCI  11
TORRINGTON     FAIR      32  10  40 E9        29.99F WCI  24
PINE BLUFFS    MOCLDY    27  14  59 NE10      29.95F WCI  17

$$



USA.gov is the U.S. government's official web portal to all federal, state and local government web resources and services.